Location: Fond Mahaut
(18.0707°N, 63.0465°W)
Time: 19:46:57
(UTC+00:00)

Meteor 1-19 Rocket - Pass Details

Date: 08 December 2019
Orbit: 816 x 918 km, 81.2° (Epoch: 18 January)

Event Time Altitude Azimuth Distance (km) Brightness Sun altitude
Rises 22:47:12 0° 184° (S) 3,446 7.7 -16.5°
Reaches altitude 10° 22:49:39 10° 184° (S) 2,494 6.9 -17.0°
Maximum altitude 22:55:19 87° 97° (E) 850 4.1 -18.3°
Drops below altitude 10° 23:00:50 10° 7° (N) 2,436 6.3 -19.5°
Enters shadow 23:01:40 - 7° (N) 2,758 6.6 -19.7°
